Starlink 35379

operational
NORAD ID: 66083 Int'l Des: 2025-235 Owner: SPXS Country: US Constellation: starlink
NOTLE

Über Starlink 35379

Beschreibung wird geladen...

Live-Position

3D-Globus wird geladen...

Nächste Überflüge

Höhenverlauf

Altitude vs Time

uPlot chart will show altitude changes over time

Zweizeiliger Elementsatz

1 66083C 25235AC 25293.06715278 .00534530 00000+0 78745-3 0 2937
2 66083 53.1589 188.8575 0005387 295.4291 195.7834 16.03716040 19
Epoch: 20. Okt. 2025 • Age: 17 hours

Aktueller Status

Höhe 270.1 km
Geschwindigkeit 7.75 km/s
Subsatellitenpunkt 43.45°N, 43.52°E
Startdatum 19. Okt. 2025
Alter 1 days
Typ internet

Technische Details

Klassifizierung Payload
Masse 575.00 kg
Trockenmasse 530.00 kg
Gesamtmasse 575.00 kg
Länge 0.30 m
Durchmesser 4.10 m
Spannweite 29.00 m
Form Box + pan
Hersteller SPXS
Bus-Typ Starlink V2MO
Phasenstatus In Orbit
Besitzer/Staat SPXS/US

Große Konstellationen

Loading constellations...